Date String (YYYY-MM-DD hh:mm:ss) UTC,Instrument flags,absolute air pressure of the measurement (hPa),sample flow rate (lpm),inlet stack bypass flow (lpm),air temperature of the measurement (°C),ambient temperature measured by the external sensor (°C),aerosol sample conditioner tube jacket temperature (°C),OPC LED temperature (°C),internal box temperature (°C),relative humidity of the measurement (%),span deviation,mass concentration of particles derived from Lorenz-Mie calculation of OPC scattering (μg/m³),mass concentration of particles derived from Lorenz-Mie calculation of OPC scattering (μg/m³),mass concentration of particles derived from Lorenz-Mie calculation of OPC scattering (μg/m³)
DateTimeUTC,F1_M11,P_M11,Q1_M11,Q2_M11,T1_M11,T2_M11,T3_M11,T4_M11,T5_M11,U1_M11,ZSPAN_M11,X0_M11,X2_M11,X1_M11
2023-06-04 12:00:00,SystemResetWarning,0833.7,5.00,000.00,030.2,028.7,000.0,038.7,031.9,28.2,0000.0,0004.71,0002.83,0002.23
2023-06-04 12:01:00,SystemResetWarning,0833.7,4.99,000.00,030.3,028.7,000.0,038.7,031.9,28.1,0000.0,0004.04,0002.90,0002.28
2023-06-04 12:02:00,SystemResetWarning,0833.7,4.99,000.00,030.3,028.7,000.0,038.7,031.9,28.1,0000.0,0004.08,0002.92,0002.31
2023-06-04 12:03:00,SystemResetWarning,0833.6,5.00,000.00,030.3,028.7,000.0,038.7,031.9,28.2,0000.0,0003.98,0002.88,0002.33
2023-06-04 12:04:00,SystemResetWarning,0833.7,5.00,000.00,030.3,028.7,000.0,038.7,031.9,28.3,0000.0,0004.12,0002.94,0002.37
2023-06-04 12:05:00,SystemResetWarning,0833.7,5.01,000.00,030.3,028.7,000.0,038.7,031.9,28.3,0000.0,0004.29,0003.00,0002.41
2023-06-04 12:06:00,SystemResetWarning,0833.7,5.00,000.00,030.3,028.7,000.0,038.7,031.9,28.4,0000.0,0005.18,0003.06,0002.43
2023-06-04 12:07:00,SystemResetWarning,0833.7,5.00,000.00,030.3,028.7,000.0,038.7,031.9,28.5,0000.0,0005.35,0003.08,0002.45
2023-06-04 12:08:00,SystemResetWarning,0833.7,4.99,000.00,030.3,028.7,000.0,038.7,031.9,28.6,0000.0,0005.28,0003.04,0002.46
2023-06-04 12:09:00,SystemResetWarning,0833.7,4.99,000.00,030.3,028.7,000.0,038.7,031.9,28.6,0000.0,0005.22,0003.01,0002.47
2023-06-04 12:10:00,SystemResetWarning,0833.7,5.00,000.00,030.3,028.7,000.0,038.7,031.9,28.6,0000.0,0005.29,0003.02,0002.48
2023-06-04 12:11:00,SystemResetWarning,0833.7,5.00,000.00,030.3,028.7,000.0,038.7,031.9,28.6,0000.0,0005.40,0003.08,0002.50
2023-06-04 12:12:00,SystemResetWarning,0833.7,5.01,000.00,030.3,028.7,000.0,038.7,031.9,28.7,0000.0,0005.59,0003.12,0002.50
2023-06-04 12:13:00,SystemResetWarning,0833.6,5.00,000.00,030.3,028.7,000.0,038.7,031.9,28.7,0000.0,0005.68,0003.15,0002.52
2023-06-04 12:14:00,SystemResetWarning,0833.7,4.99,000.00,030.3,028.7,000.0,038.7,031.9,28.8,0000.0,0005.79,0003.18,0002.54
2023-06-04 12:15:00,SystemResetWarning,0833.7,5.01,000.00,030.3,028.7,000.0,038.7,031.9,28.9,0000.0,0006.03,0003.24,0002.55
2023-06-04 12:16:00,SystemResetWarning,0833.7,5.02,000.00,030.3,028.7,000.0,038.7,031.9,28.9,0000.0,0006.20,0003.26,0002.57
2023-06-04 12:17:00,SystemResetWarning,0833.7,5.01,000.00,030.3,028.7,000.0,038.7,031.9,29.0,0000.0,0005.78,0003.27,0002.59
2023-06-04 12:18:00,SystemResetWarning,0833.7,4.99,000.00,030.3,028.7,000.0,038.7,031.9,29.0,0000.0,0005.47,0003.30,0002.60
2023-06-04 12:19:00,SystemResetWarning,0833.7,5.00,000.00,030.3,028.7,000.0,038.7,031.9,29.0,0000.0,0005.88,0003.32,0002.61
2023-06-04 12:20:00,SystemResetWarning,0833.7,4.99,000.00,030.3,028.7,000.0,038.7,031.9,29.0,0000.0,0005.94,0003.33,0002.61
2023-06-04 12:21:00,SystemResetWarning,0833.7,5.02,000.00,030.3,028.7,000.0,038.7,031.9,29.1,0000.0,0006.00,0003.37,0002.63
2023-06-04 12:22:00,SystemResetWarning,0833.7,5.01,000.00,030.3,028.8,000.0,038.7,031.9,29.1,0000.0,0006.00,0003.35,0002.63
2023-06-04 12:23:00,SystemResetWarning,0833.7,5.00,000.00,030.3,028.8,000.0,038.7,031.9,29.1,0000.0,0005.87,0003.32,0002.64
2023-06-04 12:24:00,SystemResetWarning,0833.7,5.00,000.00,030.3,028.8,000.0,038.7,031.9,29.1,0000.0,0005.77,0003.30,0002.65
2023-06-04 12:25:00,SystemResetWarning,0833.8,4.99,000.00,030.3,028.8,000.0,038.7,031.9,29.2,0000.0,0005.92,0003.32,0002.66
2023-06-04 12:26:00,SystemResetWarning,0833.8,4.99,000.00,030.3,028.8,000.0,038.7,031.9,29.1,0000.0,0005.83,0003.32,0002.66
2023-06-04 12:27:00,SystemResetWarning,0833.8,5.00,000.00,030.3,028.8,000.0,038.7,031.9,29.1,0000.0,0005.72,0003.31,0002.66
2023-06-04 12:28:00,SystemResetWarning,0833.8,5.00,000.00,030.3,028.8,000.0,038.7,031.9,29.1,0000.0,0005.80,0003.31,0002.66
2023-06-04 12:29:00,SystemResetWarning,0833.8,5.00,000.00,030.3,028.8,000.0,038.7,031.9,29.1,0000.0,0005.81,0003.31,0002.67
2023-06-04 12:30:00,SystemResetWarning,0833.8,5.00,000.00,030.3,028.8,000.0,038.7,031.9,29.1,0000.0,0005.38,0003.30,0002.69
2023-06-04 12:31:00,SystemResetWarning,0833.8,5.00,000.00,030.3,028.8,000.0,038.7,031.9,29.1,0000.0,0005.37,0003.31,0002.70
2023-06-04 12:32:00,SystemResetWarning,0833.8,4.99,000.00,030.3,028.8,000.0,038.7,031.9,29.1,0000.0,0005.44,0003.32,0002.71
2023-06-04 12:33:00,SystemResetWarning,0833.8,4.99,000.00,030.3,028.8,000.0,038.7,031.9,29.1,0000.0,0005.44,0003.32,0002.72
2023-06-04 12:34:00,SystemResetWarning,0833.8,5.00,000.00,030.3,028.8,000.0,038.7,031.9,29.3,0000.0,0005.52,0003.33,0002.72
2023-06-04 12:35:00,SystemResetWarning,0833.9,5.00,000.00,030.3,028.8,000.0,038.7,032.0,29.4,0000.0,0005.75,0003.37,0002.71
2023-06-04 12:36:00,SystemResetWarning,0833.9,5.00,000.00,030.3,028.8,000.0,038.7,032.0,29.5,0000.0,0005.64,0003.35,0002.70
2023-06-04 12:37:00,SystemResetWarning,0833.9,5.01,000.00,030.3,028.8,000.0,038.7,032.0,29.5,0000.0,0005.45,0003.32,0002.69
2023-06-04 12:38:00,SystemResetWarning,0833.8,5.00,000.00,030.3,028.8,000.0,038.7,032.0,29.6,0000.0,0005.33,0003.30,0002.69
2023-06-04 12:39:00,SystemResetWarning,0834.0,5.00,000.00,030.3,028.8,000.0,038.7,031.9,29.6,0000.0,0005.28,0003.30,0002.69
2023-06-04 12:40:00,SystemResetWarning,0833.8,5.00,000.00,030.3,028.8,000.0,038.7,032.0,29.5,0000.0,0005.29,0003.29,0002.69
2023-06-04 12:41:00,SystemResetWarning,0834.0,4.99,000.00,030.3,028.8,000.0,038.7,032.0,29.5,0000.0,0005.33,0003.30,0002.69
2023-06-04 12:42:00,SystemResetWarning,0833.9,4.99,000.00,030.3,028.8,000.0,038.7,032.0,29.4,0000.0,0005.55,0003.31,0002.69
2023-06-04 12:43:00,SystemResetWarning,0833.9,5.00,000.00,030.3,028.8,000.0,038.7,032.0,29.5,0000.0,0005.73,0003.34,0002.69
2023-06-04 12:44:00,SystemResetWarning,0833.9,5.00,000.00,030.3,028.8,000.0,038.7,032.0,29.5,0000.0,0005.93,0003.36,0002.71
2023-06-04 12:45:00,SystemResetWarning,0833.9,5.01,000.00,030.3,028.8,000.0,038.7,032.0,29.3,0000.0,0006.03,0003.40,0002.73
2023-06-04 12:46:00,SystemResetWarning,0833.8,4.99,000.00,030.3,028.8,000.0,038.7,032.0,29.3,0000.0,0006.19,0003.40,0002.74
2023-06-04 12:47:00,SystemResetWarning,0833.9,4.99,000.00,030.3,028.8,000.0,038.7,032.0,29.3,0000.0,0006.36,0003.43,0002.75
2023-06-04 12:48:00,SystemResetWarning,0833.9,5.00,000.00,030.3,028.8,000.0,038.7,032.0,29.3,0000.0,0006.63,0003.50,0002.77
2023-06-04 12:49:00,SystemResetWarning,0833.9,5.00,000.00,030.3,028.8,000.0,038.7,032.0,29.2,0000.0,0006.79,0003.52,0002.77
2023-06-04 12:50:00,SystemResetWarning,0833.9,5.00,000.00,030.3,028.8,000.0,038.7,032.0,29.2,0000.0,0006.89,0003.55,0002.77
2023-06-04 12:51:00,SystemResetWarning,0833.9,5.00,000.00,030.3,028.8,000.0,038.7,032.0,29.2,0000.0,0007.53,0003.60,0002.77
2023-06-04 12:52:00,SystemResetWarning,0833.9,5.00,000.00,030.3,028.8,000.0,038.7,032.0,29.3,0000.0,0007.89,0003.64,0002.75
2023-06-04 12:53:00,SystemResetWarning,0833.9,4.98,000.00,030.3,028.8,000.0,038.7,031.9,29.3,0000.0,0007.80,0003.62,0002.75
2023-06-04 12:54:00,SystemResetWarning,0833.9,5.00,000.00,030.3,028.8,000.0,038.7,032.0,29.3,0000.0,0007.69,0003.61,0002.75
2023-06-04 12:55:00,SystemResetWarning,0834.0,5.01,000.00,030.3,028.8,000.0,038.7,032.0,29.2,0000.0,0007.67,0003.62,0002.74
2023-06-04 12:56:00,SystemResetWarning,0833.9,5.01,000.00,030.4,028.8,000.0,038.7,032.0,29.2,0000.0,0008.32,0003.63,0002.74
2023-06-04 12:57:00,SystemResetWarning,0833.9,5.00,000.00,030.4,028.8,000.0,038.7,032.0,29.2,0000.0,0009.33,0003.67,0002.76
2023-06-04 12:58:00,SystemResetWarning,0834.0,4.99,000.00,030.4,028.8,000.0,038.7,032.0,29.1,0000.0,0009.48,0003.67,0002.76
2023-06-04 12:59:00,SystemResetWarning,0833.9,5.00,000.00,030.4,028.8,000.0,038.7,032.0,29.2,0000.0,0009.84,0003.67,0002.75
